Regional Weather Roundup
Issued by NWS

Home | Current Version | Previous Version | Text Only | Print | Product List | Glossary On
Versions: 1 2 3 4 5 6 7 8 9 10 11 12 13 14 15 16 17 18 19 20 21 22 23 24 25 26 27 28 29 30 31 32 33 34 35 36 37 38 39 40 41 42 43 44 45 46 47 48 49 50
000
ASUS43 KFSD 021710
RWRSD

WEATHER ROUNDUP FOR SOUTH DAKOTA
NATIONAL WEATHER SERVICE SIOUX FALLS SD
1200 PM CDT TUE SEP 02 2014

NOTE: "FAIR" INDICATES FEW OR NO CLOUDS BELOW 12,000 FEET WITH NO
SIGNIFICANT WEATHER AND/OR OBSTRUCTIONS TO VISIBILITY.


SDZ001>005-009-010-012>017-021800-
NORTHWEST AND NORTH CENTRAL SOUTH DAKOTA

CITY           SKY/WX    TMP DP  RH WIND       PRES   REMARKS
BUFFALO          N/A     71  49  45 W14       29.82F
FAITH            N/A     73  51  46 SW10      29.88F
MOBRIDGE       MOSUNNY   72  55  55 S7        29.85S
$$

SDZ012>016-024>037-041>051-057-063-072>074-021800-
SOUTHWEST AND SOUTH CENTRAL SOUTH DAKOTA

CITY           SKY/WX    TMP DP  RH WIND       PRES   REMARKS
RAPID CTY ARPT SUNNY     74  48  39 S12       29.92F
PIERRE         SUNNY     73  52  47 W13       29.90S
CUSTER         SUNNY     68  37  32 W14G21    30.04F
ELLSWORTH AFB  SUNNY     75  49  40 S12       29.92F
PHILIP         SUNNY     76  48  37 SW15      29.92F
PINE RIDGE     SUNNY     74  46  36 S21       29.96F
WINNER         FAIR      75  52  44 SW12      29.96S
$$

SDZ004>011-016>023-039-040-021800-
NORTHEAST SOUTH DAKOTA

CITY           SKY/WX    TMP DP  RH WIND       PRES   REMARKS
ABERDEEN       SUNNY     70  59  68 SW12      29.87F
WATERTOWN      SUNNY     71  53  52 SW8       29.92R
SISSETON         N/A     75  52  44 W14       29.85F
$$

SDZ017-020-022-023-036>040-048>070-021800-
SOUTHEAST SOUTH DAKOTA

CITY           SKY/WX    TMP DP  RH WIND       PRES   REMARKS
SIOUX FALLS    MOSUNNY   70  61  73 SW8       29.96S
HURON          SUNNY     73  55  53 SW9       29.92S
CHAMBERLAIN    SUNNY     73  54  51 SW9       29.95S
MITCHELL         N/A    N/A N/A N/A MISG      29.96S
YANKTON        SUNNY     70  57  64 W3        29.97S
$$

ABBREVIATIONS USED IN REMARKS
   TC - TEMPERATURE IN CELSIUS
  WCI - WIND CHILL INDEX
   HX - HEAT INDEX
  VSB - VISIBILITY




USA.gov is the U.S. government's official web portal to all federal, state and local government web resources and services.